{"data":{"norad_id":59576,"intl_designator":"2024-076N","name":"STARLINK-31663","alt_names":[],"object_type":"PAYLOAD","status":"ACTIVE","operator":null,"country":"US","launch_date":"2024-04-23","launch_site_code":"AFETR","launch_vehicle":null,"mission":null,"orbit_class":"UNKNOWN","rcs_meters":null,"size_class":null,"mass_kg":null,"dimensions":null,"purposes":["comms"],"wikipedia_slug":null,"has_3d_model":false,"image_url":null,"decayed_at":null,"tle_current":{"epoch":"2026-09-21T16:18:20.168640Z","epoch_age_seconds":66370,"freshness":"FRESH","line1":"1 59576U 24076N   26264.67940010  .00000607  00000+0  31586-4 0  9997","line2":"2 59576  43.0044 342.4168 0001338 258.4796 101.5906 15.27580083136475","mean_motion":15.27580083,"eccentricity":0.0001338,"inclination_deg":43.0044,"raan_deg":342.4168,"arg_perigee_deg":258.4796,"mean_anomaly_deg":101.5906,"bstar":3.1586e-5,"rev_number":13647,"period_min":94.266743591734,"perigee_km":482.13082084141,"apogee_km":483.9668741742,"semimajor_km":6861.1858475078,"source":"CELESTRAK","updated_at":"2026-09-22T09:00:49.003331Z"}}}